Flag for Austria Weather past 2 weeks in Bruck an der Leitha, Lower Austria, Austria

41 °F

Rain showers. Overcast.

Feels Like: 34 °F
Forecast: 35 / 47 °F
Wind: 10 mph from Northwest

Location: Wien / Schwechat-Flughafen

Current Time: Nov 28, 2015 at 11:34:29 PM

Latest Report: Nov 28, 2015 at 10:00 PM

Visibility: 11 mi

Pressure: 30.06 "Hg

Humidity: 76%

Dew point: 33 °F

Location of Bruck an der LeithaLocation

Historic Weather in Bruck an der Leitha — Graph


Bruck an der Leitha temperature yesterday

Maximum temperature yesterday: 39 °F (at 3:00 AM)
Minimum temperature yesterday: 36 °F (at 9:00 PM)
Average temperature yesterday: 38 °F

Past Weeks' High & Low Weather Summary

High69 °F (Nov 18, 1:00 PM)96% (Nov 20, 4:00 PM)30.38 "Hg (Nov 20, 4:00 PM)
Low23 °F (Nov 25, 3:00 AM)36% (Nov 18, 12:00 PM)29.41 "Hg (Nov 20, 9:00 PM)
Average45 °F70%29.96 "Hg
* Reported Nov 13 10:00 PM — Nov 28 10:00 PM, Bruck an der Leitha, Weather by CustomWeather, © 2015

Note: Actual official high and low records may vary slightly from our data, if they occured in-between our weather recording intervals... More about our weather records


Bruck an der Leitha weather history for previous 24 hours

Time TempWeatherWind HumidityBarometerVisibility
10:00 PM
Sat, Nov 28
41 °FRain showers. Overcast.10 mph76%30.06 "Hg11 mi
9:00 PM40 °FOvercast.10 mph73%30.02 "Hg31 mi
8:00 PM41 °FOvercast.10 mph73%29.99 "Hg28 mi
7:00 PM40 °FLight rain. Overcast.12 mph73%29.97 "Hg25 mi
6:00 PM40 °FOvercast.12 mph71%29.95 "Hg31 mi
5:00 PM41 °FOvercast.12 mph65%29.93 "Hg28 mi
4:00 PM41 °FPartly sunny.10 mph61%29.92 "Hg25 mi
3:00 PM41 °FPassing clouds.12 mph55%29.89 "Hg17 mi
2:00 PM42 °FScattered clouds.12 mph60%29.88 "Hg10 mi
1:00 PM41 °FScattered clouds.14 mph59%29.87 "Hg9 mi
12:00 PM42 °FScattered clouds.12 mph62%29.87 "Hg9 mi
11:00 AM41 °FScattered clouds.8 mph65%29.88 "Hg9 mi
10:00 AM40 °FPartly sunny.8 mph68%29.89 "Hg14 mi
9:00 AM37 °FOvercast.N/A81%29.90 "Hg6 mi
5:00 AM31 °FPassing clouds.3 mph88%29.91 "Hg5 mi
3:00 AM34 °FOvercast.N/A86%29.94 "Hg4 mi
2:00 AM34 °FOvercast.3 mph81%29.95 "Hg5 mi
Weather by CustomWeather, © 2015

See weather overviewHow to use our weather pages